This is the latest recevied weather packets stored in our database for station/object N3WGC-14. If no packets are shown the sender has not sent any weather packets the latest 10 day(s).
| Time | Temp. | Humidity | Pressure | Rain* | Wind** | Luminosity | Snow |
|---|---|---|---|---|---|---|---|
| 1778177307 | 15° C | 65% | 1010.6 hPa | 0 mm | - | - | - |
| 1778177007 | 15° C | 62% | 1010.5 hPa | 0 mm | - | - | - |
| 1778176707 | 15° C | 62% | 1010.4 hPa | 0 mm | - | - | - |
| 1778176407 | 15° C | 62% | 1010.7 hPa | 0 mm | - | - | - |
| 1778176106 | 15° C | 62% | 1010.9 hPa | 0 mm | - | - | - |
| 1778175806 | 15° C | 61% | 1011.1 hPa | 0 mm | - | - | - |
| 1778175506 | 15.56° C | 60% | 1010.9 hPa | 0 mm | - | - | - |
| 1778175206 | 15.56° C | 61% | 1010.8 hPa | 0 mm | - | - | - |
| 1778174906 | 15.56° C | 63% | 1010.8 hPa | 0 mm | - | - | - |
| 1778174606 | 15° C | 61% | 1010.7 hPa | 0 mm | - | - | - |
| 1778174305 | 15° C | 61% | 1010.8 hPa | 0 mm | - | - | - |
| 1778174005 | 15° C | 63% | 1011.1 hPa | 0 mm | - | - | - |
| 1778173705 | 14.44° C | 61% | 1011.2 hPa | 0 mm | - | - | - |
| 1778173405 | 14.44° C | 61% | 1011.2 hPa | 0 mm | - | - | - |
| 1778173105 | 14.44° C | 60% | 1011.4 hPa | 0 mm | - | - | - |
| 1778172805 | 14.44° C | 63% | 1011.5 hPa | 0 mm | - | - | - |
| 1778172505 | 13.89° C | 65% | 1011.5 hPa | 0 mm | - | - | - |
| 1778172204 | 13.89° C | 66% | 1011.5 hPa | 0 mm | - | - | - |
| 1778171904 | 13.89° C | 68% | 1011.5 hPa | 0 mm | - | - | - |
| 1778171604 | 13.89° C | 67% | 1011.8 hPa | 0 mm | - | - | - |
| 1778171304 | 13.89° C | 69% | 1011.9 hPa | 0 mm | - | - | - |
| 1778171004 | 13.89° C | 68% | 1011.9 hPa | 0 mm | - | - | - |
| 1778170704 | 13.33° C | 68% | 1012.1 hPa | 0 mm | - | - | - |
| 1778170403 | 13.33° C | 66% | 1012.1 hPa | 0 mm | - | - | - |
| 1778170103 | 13.33° C | 67% | 1012.2 hPa | 0 mm | - | - | - |
* Rain latest hour (hover to see other rain measurements)
** Current wind speed in m/s (hover to see current wind gust speed)